Year,Month,Day,Hour,Minute,Value (Times are PST for barometer in hPa)
2022,12,26,00,00,1007.65
2022,12,26,00,01,1007.65
2022,12,26,00,02,1007.61
2022,12,26,00,03,1007.48
2022,12,26,00,04,1007.45
2022,12,26,00,05,1007.55
2022,12,26,00,06,1007.62
2022,12,26,00,07,1007.62
2022,12,26,00,08,1007.64
2022,12,26,00,09,1007.48
2022,12,26,00,10,1007.51
2022,12,26,00,11,1007.38
2022,12,26,00,12,1007.38
2022,12,26,00,13,1007.35
2022,12,26,00,14,1007.42
2022,12,26,00,15,1007.38
2022,12,26,00,16,1007.28
2022,12,26,00,17,1007.21
2022,12,26,00,18,1007.12
2022,12,26,00,19,1007.25
2022,12,26,00,20,1007.18
2022,12,26,00,21,1007.18
2022,12,26,00,22,1007.15
2022,12,26,00,23,1007.21
2022,12,26,00,24,1007.28
2022,12,26,00,25,1007.25
2022,12,26,00,26,1007.28
2022,12,26,00,27,1007.21
2022,12,26,00,28,1007.15
2022,12,26,00,29,1007.15
2022,12,26,00,30,1007.08
2022,12,26,00,31,1007.15
2022,12,26,00,32,1007.11
2022,12,26,00,33,1007.08
2022,12,26,00,34,1007.08
2022,12,26,00,35,1006.77
2022,12,26,00,36,1006.77
2022,12,26,00,37,1006.81
2022,12,26,00,38,1006.84
2022,12,26,00,39,1006.77
2022,12,26,00,40,1006.77
2022,12,26,00,41,1006.77
2022,12,26,00,42,1006.77
2022,12,26,00,43,1006.77
2022,12,26,00,44,1006.71
2022,12,26,00,45,1006.77
2022,12,26,00,46,1006.71
2022,12,26,00,47,1006.67
2022,12,26,00,48,1006.50
2022,12,26,00,49,1006.54
2022,12,26,00,50,1006.47
2022,12,26,00,51,1006.47
2022,12,26,00,52,1006.39
2022,12,26,00,53,1006.23
2022,12,26,00,54,1006.23
2022,12,26,00,55,1006.10
2022,12,26,00,56,1006.10
2022,12,26,00,57,1006.10
2022,12,26,00,58,1006.06
2022,12,26,00,59,1006.06
2022,12,26,01,00,1006.13
2022,12,26,01,01,1006.13
2022,12,26,01,02,1006.10
2022,12,26,01,03,1006.03
2022,12,26,01,04,1005.92
2022,12,26,01,05,1005.79
2022,12,26,01,06,1005.62
2022,12,26,01,07,1005.49
2022,12,26,01,08,1005.45
2022,12,26,01,09,1005.34
2022,12,26,01,10,1005.15
2022,12,26,01,11,1005.11
2022,12,26,01,12,1005.18
2022,12,26,01,13,1005.11
2022,12,26,01,14,1005.05
2022,12,26,01,15,1005.05
2022,12,26,01,16,1005.11
2022,12,26,01,17,1005.11
2022,12,26,01,18,1005.08
2022,12,26,01,19,1005.08
2022,12,26,01,20,1005.05
2022,12,26,01,21,1005.05
2022,12,26,01,22,1005.05
2022,12,26,01,23,1005.04
2022,12,26,01,24,1004.91
2022,12,26,01,25,1004.91
2022,12,26,01,26,1004.95
2022,12,26,01,27,1004.95
2022,12,26,01,28,1004.82
2022,12,26,01,29,1004.91
2022,12,26,01,30,1004.88
2022,12,26,01,31,1004.74
2022,12,26,01,32,1004.67
2022,12,26,01,33,1004.81
2022,12,26,01,34,1004.78
2022,12,26,01,35,1004.73
2022,12,26,01,36,1004.61
2022,12,26,01,37,1004.47
2022,12,26,01,38,1004.44
2022,12,26,01,39,1004.40
2022,12,26,01,40,1004.44
2022,12,26,01,41,1004.50
2022,12,26,01,42,1004.61
2022,12,26,01,43,1004.54
2022,12,26,01,44,1004.61
2022,12,26,01,45,1004.57
2022,12,26,01,46,1004.54
2022,12,26,01,47,1004.44
2022,12,26,01,48,1004.44
2022,12,26,01,49,1004.50
2022,12,26,01,50,1004.34
2022,12,26,01,51,1004.34
2022,12,26,01,52,1004.17
2022,12,26,01,53,1004.17
2022,12,26,01,54,1004.17
2022,12,26,01,55,1004.17
2022,12,26,01,56,1004.00
2022,12,26,01,57,1004.06
2022,12,26,01,58,1004.13
2022,12,26,01,59,1003.96
2022,12,26,02,00,1003.96
2022,12,26,02,01,1003.76
2022,12,26,02,02,1003.70
2022,12,26,02,03,1003.79
2022,12,26,02,04,1003.79
2022,12,26,02,05,1003.73
2022,12,26,02,06,1003.66
2022,12,26,02,07,1003.66
2022,12,26,02,08,1003.62
2022,12,26,02,09,1003.59
2022,12,26,02,10,1003.59
2022,12,26,02,11,1003.59
2022,12,26,02,12,1003.52
2022,12,26,02,13,1003.56
2022,12,26,02,14,1003.56
2022,12,26,02,15,1003.49
2022,12,26,02,16,1003.49
2022,12,26,02,17,1003.46
2022,12,26,02,18,1003.39
2022,12,26,02,19,1003.49
2022,12,26,02,20,1003.42
2022,12,26,02,21,1003.39
2022,12,26,02,22,1003.29
2022,12,26,02,23,1003.32
2022,12,26,02,24,1003.29
2022,12,26,02,25,1003.32
2022,12,26,02,26,1003.22
2022,12,26,02,27,1003.25
2022,12,26,02,28,1003.18
2022,12,26,02,29,1003.08
2022,12,26,02,30,1003.01
2022,12,26,02,31,1003.08
2022,12,26,02,32,1003.12
2022,12,26,02,33,1003.01
2022,12,26,02,34,1003.08
2022,12,26,02,35,1003.08
2022,12,26,02,36,1003.15
2022,12,26,02,37,1003.08
2022,12,26,02,38,1003.15
2022,12,26,02,39,1003.05
2022,12,26,02,40,1003.05
2022,12,26,02,41,1003.08
2022,12,26,02,42,1003.05
2022,12,26,02,43,1003.18
2022,12,26,02,44,1003.05
2022,12,26,02,45,1003.05
2022,12,26,02,46,1002.95
2022,12,26,02,47,1002.91
2022,12,26,02,48,1002.97
2022,12,26,02,49,1002.88
2022,12,26,02,50,1002.91
2022,12,26,02,51,1002.85
2022,12,26,02,52,1002.81
2022,12,26,02,53,1002.85
2022,12,26,02,54,1002.88
2022,12,26,02,55,1002.81
2022,12,26,02,56,1002.78
2022,12,26,02,57,1002.85
2022,12,26,02,58,1002.91
2022,12,26,02,59,1002.88
2022,12,26,03,00,1002.85
2022,12,26,03,01,1002.74
2022,12,26,03,02,1002.85
2022,12,26,03,03,1002.88
2022,12,26,03,04,1002.74
2022,12,26,03,05,1002.54
2022,12,26,03,06,1002.61
2022,12,26,03,07,1002.37
2022,12,26,03,08,1002.56
2022,12,26,03,09,1002.10
2022,12,26,03,10,1002.04
2022,12,26,03,11,1002.28
2022,12,26,03,12,1001.90
2022,12,26,03,13,1001.65
2022,12,26,03,14,1001.93
2022,12,26,03,15,1002.03
2022,12,26,03,16,1001.83
2022,12,26,03,17,1001.63
2022,12,26,03,18,1001.69
2022,12,26,03,19,1001.59
2022,12,26,03,20,1001.39
2022,12,26,03,21,1001.37
2022,12,26,03,22,1001.63
2022,12,26,03,23,1001.72
2022,12,26,03,24,1001.48
2022,12,26,03,25,1001.36
2022,12,26,03,26,1001.73
2022,12,26,03,27,1001.58
2022,12,26,03,28,1001.42
2022,12,26,03,29,1001.36
2022,12,26,03,30,1001.86
2022,12,26,03,31,1001.67
2022,12,26,03,32,1001.63
2022,12,26,03,33,1001.42
2022,12,26,03,34,1001.63
2022,12,26,03,35,1001.76
2022,12,26,03,36,1001.93
2022,12,26,03,37,1001.97
2022,12,26,03,38,1002.00
2022,12,26,03,39,1002.00
2022,12,26,03,40,1002.00
2022,12,26,03,41,1001.97
2022,12,26,03,42,1001.97
2022,12,26,03,43,1002.00
2022,12,26,03,44,1001.93
2022,12,26,03,45,1001.73
2022,12,26,03,46,1001.69
2022,12,26,03,47,1001.55
2022,12,26,03,48,1001.39
2022,12,26,03,49,1001.49
2022,12,26,03,50,1001.42
2022,12,26,03,51,1001.59
2022,12,26,03,52,1001.59
2022,12,26,03,53,1001.65
2022,12,26,03,54,1001.42
2022,12,26,03,55,1001.36
2022,12,26,03,56,1001.36
2022,12,26,03,57,1001.45
2022,12,26,03,58,1001.32
2022,12,26,03,59,1001.69
2022,12,26,04,00,1001.49
2022,12,26,04,01,1001.45
2022,12,26,04,02,1001.25
2022,12,26,04,03,1001.29
2022,12,26,04,04,1001.36
2022,12,26,04,05,1001.27
2022,12,26,04,06,1000.95
2022,12,26,04,07,1000.78
2022,12,26,04,08,1000.58
2022,12,26,04,09,1000.61
2022,12,26,04,10,1000.44
2022,12,26,04,11,1000.24
2022,12,26,04,12,1000.31
2022,12,26,04,13,1000.27
2022,12,26,04,14,1000.34
2022,12,26,04,15,1000.20
2022,12,26,04,16,1000.10
2022,12,26,04,17,1000.30
2022,12,26,04,18,1000.14
2022,12,26,04,19,1000.00
2022,12,26,04,20,1000.07
2022,12,26,04,21,999.97
2022,12,26,04,22,1000.03
2022,12,26,04,23,1000.20
2022,12,26,04,24,1000.00
2022,12,26,04,25,1000.00
2022,12,26,04,26,1000.06
2022,12,26,04,27,999.87
2022,12,26,04,28,999.80
2022,12,26,04,29,999.76
2022,12,26,04,30,999.76
2022,12,26,04,31,999.73
2022,12,26,04,32,999.76
2022,12,26,04,33,999.76
2022,12,26,04,34,999.73
2022,12,26,04,35,999.70
2022,12,26,04,36,999.63
2022,12,26,04,37,999.70
2022,12,26,04,38,999.63
2022,12,26,04,39,999.66
2022,12,26,04,40,999.65
2022,12,26,04,41,999.53
2022,12,26,04,42,999.66
2022,12,26,04,43,999.36
2022,12,26,04,44,999.39
2022,12,26,04,45,999.26
2022,12,26,04,46,999.36
2022,12,26,04,47,999.12
2022,12,26,04,48,999.00
2022,12,26,04,49,999.12
2022,12,26,04,50,999.29
2022,12,26,04,51,999.39
2022,12,26,04,52,999.36
2022,12,26,04,53,999.26
2022,12,26,04,54,999.21
2022,12,26,04,55,999.05
2022,12,26,04,56,999.36
2022,12,26,04,57,999.32
2022,12,26,04,58,999.26
2022,12,26,04,59,999.39
2022,12,26,05,00,999.36
2022,12,26,05,01,999.19
2022,12,26,05,02,999.39
2022,12,26,05,03,999.27
2022,12,26,05,04,999.29
2022,12,26,05,05,999.43
2022,12,26,05,06,999.36
2022,12,26,05,07,999.39
2022,12,26,05,08,999.39
2022,12,26,05,09,999.32
2022,12,26,05,10,999.26
2022,12,26,05,11,999.09
2022,12,26,05,12,999.22
2022,12,26,05,13,999.26
2022,12,26,05,14,999.29
2022,12,26,05,15,999.29
2022,12,26,05,16,999.19
2022,12,26,05,17,999.22
2022,12,26,05,18,999.12
2022,12,26,05,19,999.04
2022,12,26,05,20,998.94
2022,12,26,05,21,998.75
2022,12,26,05,22,998.78
2022,12,26,05,23,998.68
2022,12,26,05,24,998.71
2022,12,26,05,25,998.84
2022,12,26,05,26,998.65
2022,12,26,05,27,998.48
2022,12,26,05,28,998.71
2022,12,26,05,29,998.92
2022,12,26,05,30,998.71
2022,12,26,05,31,999.09
2022,12,26,05,32,999.12
2022,12,26,05,33,999.22
2022,12,26,05,34,999.05
2022,12,26,05,35,999.09
2022,12,26,05,36,999.12
2022,12,26,05,37,999.19
2022,12,26,05,38,999.43
2022,12,26,05,39,999.32
2022,12,26,05,40,999.39
2022,12,26,05,41,999.49
2022,12,26,05,42,999.76
2022,12,26,05,43,999.73
2022,12,26,05,44,999.83
2022,12,26,05,45,999.83
2022,12,26,05,46,999.90
2022,12,26,05,47,999.70
2022,12,26,05,48,999.76
2022,12,26,05,49,1000.07
2022,12,26,05,50,1000.03
2022,12,26,05,51,1000.00
2022,12,26,05,52,1000.00
2022,12,26,05,53,999.93
2022,12,26,05,54,1000.00
2022,12,26,05,55,1000.07
2022,12,26,05,56,1000.03
2022,12,26,05,57,1000.37
2022,12,26,05,58,1000.17
2022,12,26,05,59,1000.17
2022,12,26,06,00,1000.34
2022,12,26,06,01,1000.39
2022,12,26,06,02,1000.81
2022,12,26,06,03,1000.48
2022,12,26,06,04,1000.78
2022,12,26,06,05,1000.81
2022,12,26,06,06,1000.78
2022,12,26,06,07,1000.95
2022,12,26,06,08,1000.68
2022,12,26,06,09,1000.20
2022,12,26,06,10,1000.54
2022,12,26,06,11,1000.17
2022,12,26,06,12,999.93
2022,12,26,06,13,1000.48
2022,12,26,06,14,1000.51
2022,12,26,06,15,1000.44
2022,12,26,06,16,1000.44
2022,12,26,06,17,1000.37
2022,12,26,06,18,1000.48
2022,12,26,06,19,1000.71
2022,12,26,06,20,1000.78
2022,12,26,06,21,1000.75
2022,12,26,06,22,1000.78
2022,12,26,06,23,1000.64
2022,12,26,06,24,1000.61
2022,12,26,06,25,1000.54
2022,12,26,06,26,1000.75
2022,12,26,06,27,1000.75
2022,12,26,06,28,1000.71
2022,12,26,06,29,1000.64
2022,12,26,06,30,1000.51
2022,12,26,06,31,1000.75
2022,12,26,06,32,1000.78
2022,12,26,06,33,1000.85
2022,12,26,06,34,1000.98
2022,12,26,06,35,1000.98
2022,12,26,06,36,1001.02
2022,12,26,06,37,1001.02
2022,12,26,06,38,1001.05
2022,12,26,06,39,1001.12
2022,12,26,06,40,1001.19
2022,12,26,06,41,1001.15
2022,12,26,06,42,1001.19
2022,12,26,06,43,1001.08
2022,12,26,06,44,1001.12
2022,12,26,06,45,1001.29
2022,12,26,06,46,1001.46
2022,12,26,06,47,1001.42
2022,12,26,06,48,1001.22
2022,12,26,06,49,1001.25
2022,12,26,06,50,1001.22
2022,12,26,06,51,1001.32
2022,12,26,06,52,1001.32
2022,12,26,06,53,1001.36
2022,12,26,06,54,1001.36
2022,12,26,06,55,1001.32
2022,12,26,06,56,1001.22
2022,12,26,06,57,1001.19
2022,12,26,06,58,1001.22
2022,12,26,06,59,1001.36
2022,12,26,07,00,1001.32
2022,12,26,07,01,1001.36
2022,12,26,07,02,1001.12
2022,12,26,07,03,1001.32
2022,12,26,07,04,1001.29
2022,12,26,07,05,1001.32
2022,12,26,07,06,1001.32
2022,12,26,07,07,1001.25
2022,12,26,07,08,1001.22
2022,12,26,07,09,1001.22
2022,12,26,07,10,1001.29
2022,12,26,07,11,1001.36
2022,12,26,07,12,1001.36
2022,12,26,07,13,1001.29
2022,12,26,07,14,1001.32
2022,12,26,07,15,1001.25
2022,12,26,07,16,1001.29
2022,12,26,07,17,1001.29
2022,12,26,07,18,1001.39
2022,12,26,07,19,1001.32
2022,12,26,07,20,1001.25
2022,12,26,07,21,1001.25
2022,12,26,07,22,1001.15
2022,12,26,07,23,1001.22
2022,12,26,07,24,1001.15
2022,12,26,07,25,1001.29
2022,12,26,07,26,1001.03
2022,12,26,07,27,1001.26
2022,12,26,07,28,1001.36
2022,12,26,07,29,1001.42
2022,12,26,07,30,1001.22
2022,12,26,07,31,1001.39
2022,12,26,07,32,1001.32
2022,12,26,07,33,1001.46
2022,12,26,07,34,1001.46
2022,12,26,07,35,1001.46
2022,12,26,07,36,1001.52
2022,12,26,07,37,1001.52
2022,12,26,07,38,1001.52
2022,12,26,07,39,1001.42
2022,12,26,07,40,1001.56
2022,12,26,07,41,1001.59
2022,12,26,07,42,1001.72
2022,12,26,07,43,1001.66
2022,12,26,07,44,1001.90
2022,12,26,07,45,1001.73
2022,12,26,07,46,1001.69
2022,12,26,07,47,1001.80
2022,12,26,07,48,1001.69
2022,12,26,07,49,1001.63
2022,12,26,07,50,1001.69
2022,12,26,07,51,1001.59
2022,12,26,07,52,1001.56
2022,12,26,07,53,1001.66
2022,12,26,07,54,1001.79
2022,12,26,07,55,1001.69
2022,12,26,07,56,1001.69
2022,12,26,07,57,1001.73
2022,12,26,07,58,1001.66
2022,12,26,07,59,1001.73
2022,12,26,08,00,1001.73
2022,12,26,08,01,1001.56
2022,12,26,08,02,1001.46
2022,12,26,08,03,1001.59
2022,12,26,08,04,1001.90
2022,12,26,08,05,1001.69
2022,12,26,08,06,1001.49
2022,12,26,08,07,1001.69
2022,12,26,08,08,1001.69
2022,12,26,08,09,1001.72
2022,12,26,08,10,1001.56
2022,12,26,08,11,1001.69
2022,12,26,08,12,1001.66
2022,12,26,08,13,1001.52
2022,12,26,08,14,1001.56
2022,12,26,08,15,1001.52
2022,12,26,08,16,1001.63
2022,12,26,08,17,1001.61
2022,12,26,08,18,1001.93
2022,12,26,08,19,1001.82
2022,12,26,08,20,1001.57
2022,12,26,08,21,1001.76
2022,12,26,08,22,1001.83
2022,12,26,08,23,1001.86
2022,12,26,08,24,1001.97
2022,12,26,08,25,1001.83
2022,12,26,08,26,1001.86
2022,12,26,15,04,1003.93
2022,12,26,15,05,1003.93
2022,12,26,15,06,1003.93
2022,12,26,15,07,1003.83
2022,12,26,15,08,1003.69
2022,12,26,15,09,1003.76
2022,12,26,15,10,1003.56
2022,12,26,15,11,1003.49
2022,12,26,15,12,1003.52
2022,12,26,15,13,1003.52
2022,12,26,15,14,1003.56
2022,12,26,15,15,1003.73
2022,12,26,15,16,1003.73
2022,12,26,15,17,1003.73
2022,12,26,15,18,1003.73
2022,12,26,15,19,1003.66
2022,12,26,15,20,1003.66
2022,12,26,15,21,1003.59
2022,12,26,15,22,1003.66
2022,12,26,15,23,1003.59
2022,12,26,15,24,1003.59
2022,12,26,15,25,1003.66
2022,12,26,15,26,1003.69
2022,12,26,15,27,1003.59
2022,12,26,15,28,1003.56
2022,12,26,15,29,1003.49
2022,12,26,15,30,1003.42
2022,12,26,15,31,1003.42
2022,12,26,15,32,1003.32
2022,12,26,15,33,1003.29
2022,12,26,15,34,1003.29
2022,12,26,15,35,1003.29
2022,12,26,15,36,1003.18
2022,12,26,15,37,1003.05
2022,12,26,15,38,1003.05
2022,12,26,15,39,1002.98
2022,12,26,15,40,1002.91
2022,12,26,15,41,1002.94
2022,12,26,15,42,1002.78
2022,12,26,15,43,1002.71
2022,12,26,15,44,1002.71
2022,12,26,15,45,1002.68
2022,12,26,15,46,1002.64
2022,12,26,15,47,1002.64
2022,12,26,15,48,1002.61
2022,12,26,15,49,1002.57
2022,12,26,15,50,1002.64
2022,12,26,15,51,1002.64
2022,12,26,15,52,1002.54
2022,12,26,15,53,1002.54
2022,12,26,15,54,1002.51
2022,12,26,15,55,1002.44
2022,12,26,15,56,1002.41
2022,12,26,15,57,1002.37
2022,12,26,15,58,1002.30
2022,12,26,15,59,1002.41
2022,12,26,16,00,1002.27
2022,12,26,16,01,1002.24
2022,12,26,16,02,1002.24
2022,12,26,16,03,1002.17
2022,12,26,16,04,1002.13
2022,12,26,16,05,1001.97
2022,12,26,16,06,1001.93
2022,12,26,16,07,1001.93
2022,12,26,16,08,1001.93
2022,12,26,16,09,1001.86
2022,12,26,16,10,1001.80
2022,12,26,16,11,1001.80
2022,12,26,16,12,1001.76
2022,12,26,16,13,1001.83
2022,12,26,16,14,1001.73
2022,12,26,16,15,1001.73
2022,12,26,16,16,1001.66
2022,12,26,16,17,1001.56
2022,12,26,16,18,1001.52
2022,12,26,16,19,1001.52
2022,12,26,16,20,1001.39
2022,12,26,16,21,1001.36
2022,12,26,16,22,1001.36
2022,12,26,16,23,1001.36
2022,12,26,16,24,1001.35
2022,12,26,16,25,1001.25
2022,12,26,16,26,1001.22
2022,12,26,16,27,1001.25
2022,12,26,16,28,1001.19
2022,12,26,16,29,1001.12
2022,12,26,16,30,1001.12
2022,12,26,16,31,1000.98
2022,12,26,16,32,1001.05
2022,12,26,16,33,1001.02
2022,12,26,16,34,1000.92
2022,12,26,16,35,1000.85
2022,12,26,16,36,1000.92
2022,12,26,16,37,1000.87
2022,12,26,16,38,1000.75
2022,12,26,16,39,1000.68
2022,12,26,16,40,1000.61
2022,12,26,16,41,1000.54
2022,12,26,16,42,1000.54
2022,12,26,16,43,1000.44
2022,12,26,16,44,1000.44
2022,12,26,16,45,1000.41
2022,12,26,16,46,1000.37
2022,12,26,16,47,1000.37
2022,12,26,16,48,1000.37
2022,12,26,16,49,1000.37
2022,12,26,16,50,1000.37
2022,12,26,16,51,1000.37
2022,12,26,16,52,1000.37
2022,12,26,16,53,1000.37
2022,12,26,16,54,1000.34
2022,12,26,16,55,1000.31
2022,12,26,16,56,1000.24
2022,12,26,16,57,1000.14
2022,12,26,16,58,1000.07
2022,12,26,16,59,999.93
2022,12,26,17,00,999.97
2022,12,26,17,01,999.93
2022,12,26,17,02,999.87
2022,12,26,17,03,999.83
2022,12,26,17,04,999.76
2022,12,26,17,05,999.70
2022,12,26,17,06,999.66
2022,12,26,17,07,999.56
2022,12,26,17,08,999.49
2022,12,26,17,09,999.36
2022,12,26,17,10,999.43
2022,12,26,17,11,999.36
2022,12,26,17,12,999.32
2022,12,26,17,13,999.36
2022,12,26,17,14,999.32
2022,12,26,17,15,999.26
2022,12,26,17,16,999.22
2022,12,26,17,17,999.22
2022,12,26,17,18,999.12
2022,12,26,17,19,998.99
2022,12,26,17,20,998.99
2022,12,26,17,21,998.99
2022,12,26,17,22,998.85
2022,12,26,17,23,998.76
2022,12,26,17,24,998.68
2022,12,26,17,25,998.65
2022,12,26,17,26,998.65
2022,12,26,17,27,998.58
2022,12,26,17,28,998.48
2022,12,26,17,29,998.54
2022,12,26,17,30,998.51
2022,12,26,17,31,998.44
2022,12,26,17,32,998.48
2022,12,26,17,33,998.44
2022,12,26,17,34,998.41
2022,12,26,17,35,998.38
2022,12,26,17,36,998.31
2022,12,26,17,37,998.14
2022,12,26,17,38,998.10
2022,12,26,17,39,998.10
2022,12,26,17,40,998.07
2022,12,26,17,41,998.07
2022,12,26,17,42,998.00
2022,12,26,17,43,997.90
2022,12,26,17,44,997.87
2022,12,26,17,45,997.77
2022,12,26,17,46,997.77
2022,12,26,17,47,997.66
2022,12,26,17,48,997.60
2022,12,26,17,49,997.60
2022,12,26,17,50,997.60
2022,12,26,17,51,997.46
2022,12,26,17,52,997.50
2022,12,26,17,53,997.39
2022,12,26,17,54,997.33
2022,12,26,17,55,997.36
2022,12,26,17,56,997.29
2022,12,26,17,57,997.16
2022,12,26,17,58,997.09
2022,12,26,17,59,996.95
2022,12,26,18,00,996.99
2022,12,26,18,01,996.83
2022,12,26,18,02,996.82
2022,12,26,18,03,996.82
2022,12,26,18,04,996.75
2022,12,26,18,05,996.72
2022,12,26,18,06,996.72
2022,12,26,18,07,996.75
2022,12,26,18,08,996.65
2022,12,26,18,09,996.61
2022,12,26,18,10,996.68
2022,12,26,18,11,996.55
2022,12,26,18,12,996.58
2022,12,26,18,13,996.51
2022,12,26,18,14,996.55
2022,12,26,18,15,996.48
2022,12,26,18,16,996.51
2022,12,26,18,17,996.41
2022,12,26,18,18,996.45
2022,12,26,18,19,996.41
2022,12,26,18,20,996.27
2022,12,26,18,21,996.07
2022,12,26,18,22,996.17
2022,12,26,18,23,996.07
2022,12,26,18,24,996.04
2022,12,26,18,25,995.97
2022,12,26,18,26,996.01
2022,12,26,18,27,995.90
2022,12,26,18,28,995.90
2022,12,26,18,29,995.80
2022,12,26,18,30,995.77
2022,12,26,18,31,995.73
2022,12,26,18,32,995.67
2022,12,26,18,33,995.67
2022,12,26,18,34,995.60
2022,12,26,18,35,995.56
2022,12,26,18,36,995.56
2022,12,26,18,37,995.36
2022,12,26,18,38,995.40
2022,12,26,18,39,995.24
2022,12,26,18,40,995.16
2022,12,26,18,41,995.06
2022,12,26,18,42,995.02
2022,12,26,18,43,994.89
2022,12,26,18,44,994.92
2022,12,26,18,45,994.79
2022,12,26,18,46,994.72
2022,12,26,18,47,994.65
2022,12,26,18,48,994.58
2022,12,26,18,49,994.58
2022,12,26,18,50,994.52
2022,12,26,18,51,994.45
2022,12,26,18,52,994.35
2022,12,26,18,53,994.28
2022,12,26,18,54,994.28
2022,12,26,18,55,994.18
2022,12,26,18,56,994.14
2022,12,26,18,57,994.14
2022,12,26,18,58,994.11
2022,12,26,18,59,994.07
2022,12,26,19,00,994.04
2022,12,26,19,01,994.04
2022,12,26,19,02,994.01
2022,12,26,19,03,993.97
2022,12,26,19,04,993.97
2022,12,26,19,05,994.01
2022,12,26,19,06,993.97
2022,12,26,19,07,993.97
2022,12,26,19,08,993.94
2022,12,26,19,09,993.97
2022,12,26,19,10,993.87
2022,12,26,19,11,993.84
2022,12,26,19,12,993.84
2022,12,26,19,13,993.84
2022,12,26,19,14,993.84
2022,12,26,19,15,993.77
2022,12,26,19,16,993.74
2022,12,26,19,17,993.70
2022,12,26,19,18,993.70
2022,12,26,19,19,993.70
2022,12,26,19,20,993.67
2022,12,26,19,21,993.63
2022,12,26,19,22,993.60
2022,12,26,19,23,993.50
2022,12,26,19,24,993.57
2022,12,26,19,25,993.47
2022,12,26,19,26,993.43
2022,12,26,19,27,993.43
2022,12,26,19,28,993.43
2022,12,26,19,29,993.40
2022,12,26,19,30,993.40
2022,12,26,19,31,993.36
2022,12,26,19,32,993.29
2022,12,26,19,33,993.13
2022,12,26,19,34,993.09
2022,12,26,19,35,993.09
2022,12,26,19,36,993.06
2022,12,26,19,37,993.03
2022,12,26,19,38,992.96
2022,12,26,19,39,992.86
2022,12,26,19,40,992.82
2022,12,26,19,41,992.86
2022,12,26,19,42,992.82
2022,12,26,19,43,992.72
2022,12,26,19,44,992.72
2022,12,26,19,45,992.65
2022,12,26,19,46,992.58
2022,12,26,19,47,992.64
2022,12,26,19,48,992.48
2022,12,26,19,49,992.45
2022,12,26,19,50,992.48
2022,12,26,19,51,992.42
2022,12,26,19,52,992.35
2022,12,26,19,53,992.35
2022,12,26,19,54,992.35
2022,12,26,19,55,992.31
2022,12,26,19,56,992.18
2022,12,26,19,57,992.14
2022,12,26,19,58,992.04
2022,12,26,19,59,992.01
2022,12,26,20,00,991.91
2022,12,26,20,01,991.87
2022,12,26,20,02,991.70
2022,12,26,20,03,991.70
2022,12,26,20,04,991.67
2022,12,26,20,05,991.64
2022,12,26,20,06,991.57
2022,12,26,20,07,991.50
2022,12,26,20,08,991.49
2022,12,26,20,09,991.37
2022,12,26,20,10,991.40
2022,12,26,20,11,991.33
2022,12,26,20,12,991.30
2022,12,26,20,13,991.30
2022,12,26,20,14,991.26
2022,12,26,20,15,991.16
2022,12,26,20,16,991.16
2022,12,26,20,17,991.03
2022,12,26,20,18,990.99
2022,12,26,20,19,990.96
2022,12,26,20,20,990.93
2022,12,26,20,21,990.79
2022,12,26,20,22,990.72
2022,12,26,20,23,990.65
2022,12,26,20,24,990.62
2022,12,26,20,25,990.59
2022,12,26,20,26,990.35
2022,12,26,20,27,990.35
2022,12,26,20,28,990.35
2022,12,26,20,29,990.35
2022,12,26,20,30,990.28
2022,12,26,20,31,990.32
2022,12,26,20,32,990.32
2022,12,26,20,33,990.25
2022,12,26,20,34,990.25
2022,12,26,20,35,990.18
2022,12,26,20,36,990.21
2022,12,26,20,37,990.15
2022,12,26,20,38,990.15
2022,12,26,20,39,990.04
2022,12,26,20,40,990.08
2022,12,26,20,41,990.01
2022,12,26,20,42,990.01
2022,12,26,20,43,989.91
2022,12,26,20,44,989.77
2022,12,26,20,45,989.71
2022,12,26,20,46,989.64
2022,12,26,20,47,989.60
2022,12,26,20,48,989.57
2022,12,26,20,49,989.47
2022,12,26,20,50,989.44
2022,12,26,20,51,989.40
2022,12,26,20,52,989.44
2022,12,26,20,53,989.44
2022,12,26,20,54,989.30
2022,12,26,20,55,989.33
2022,12,26,20,56,989.20
2022,12,26,20,57,989.10
2022,12,26,20,58,989.03
2022,12,26,20,59,988.96
2022,12,26,21,00,988.96
2022,12,26,21,01,988.96
2022,12,26,21,02,988.83
2022,12,26,21,03,988.72
2022,12,26,21,04,988.76
2022,12,26,21,05,988.68
2022,12,26,21,06,988.55
2022,12,26,21,07,988.52
2022,12,26,21,08,988.52
2022,12,26,21,09,988.49
2022,12,26,21,10,988.45
2022,12,26,21,11,988.35
2022,12,26,21,12,988.35
2022,12,26,21,13,988.28
2022,12,26,21,14,988.01
2022,12,26,21,15,988.01
2022,12,26,21,16,987.98
2022,12,26,21,17,987.85
2022,12,26,21,18,987.72
2022,12,26,21,19,987.67
2022,12,26,21,20,987.61
2022,12,26,21,21,987.64
2022,12,26,21,22,987.51
2022,12,26,21,23,987.40
2022,12,26,21,24,987.40
2022,12,26,21,25,987.40
2022,12,26,21,26,987.37
2022,12,26,21,27,987.37
2022,12,26,21,28,987.20
2022,12,26,21,29,987.23
2022,12,26,21,30,987.17
2022,12,26,21,31,987.13
2022,12,26,21,32,987.13
2022,12,26,21,33,987.00
2022,12,26,21,34,986.93
2022,12,26,21,35,986.90
2022,12,26,21,36,986.90
2022,12,26,21,37,986.83
2022,12,26,21,38,986.66
2022,12,26,21,39,986.49
2022,12,26,21,40,986.52
2022,12,26,21,41,986.46
2022,12,26,21,42,986.49
2022,12,26,21,43,986.35
2022,12,26,21,44,986.29
2022,12,26,21,45,986.18
2022,12,26,21,46,986.12
2022,12,26,21,47,986.15
2022,12,26,21,48,985.98
2022,12,26,21,49,985.91
2022,12,26,21,50,985.91
2022,12,26,21,51,985.91
2022,12,26,21,52,985.91
2022,12,26,21,53,985.81
2022,12,26,21,54,985.88
2022,12,26,21,55,985.88
2022,12,26,21,56,985.88
2022,12,26,21,57,985.74
2022,12,26,21,58,985.74
2022,12,26,21,59,985.78
2022,12,26,22,00,985.71
2022,12,26,22,01,985.57
2022,12,26,22,02,985.57
2022,12,26,22,03,985.47
2022,12,26,22,04,985.47
2022,12,26,22,05,985.41
2022,12,26,22,06,985.37
2022,12,26,22,07,985.24
2022,12,26,22,08,985.17
2022,12,26,22,09,985.13
2022,12,26,22,10,984.97
2022,12,26,22,11,984.90
2022,12,26,22,12,984.76
2022,12,26,22,13,984.76
2022,12,26,22,14,984.63
2022,12,26,22,15,984.53
2022,12,26,22,16,984.53
2022,12,26,22,17,984.42
2022,12,26,22,18,984.42
2022,12,26,22,19,984.25
2022,12,26,22,20,984.22
2022,12,26,22,21,984.22
2022,12,26,22,22,984.15
2022,12,26,22,23,984.08
2022,12,26,22,24,984.02
2022,12,26,22,25,983.92
2022,12,26,22,26,983.92
2022,12,26,22,27,983.95
2022,12,26,22,28,983.75
2022,12,26,22,29,983.71
2022,12,26,22,30,983.75
2022,12,26,22,31,983.71
2022,12,26,22,32,983.61
2022,12,26,22,33,983.54
2022,12,26,22,34,983.44
2022,12,26,22,35,983.37
2022,12,26,22,36,983.37
2022,12,26,22,37,983.31
2022,12,26,22,38,983.14
2022,12,26,22,39,983.14
2022,12,26,22,40,983.14
2022,12,26,22,41,983.17
2022,12,26,22,42,983.08
2022,12,26,22,43,983.00
2022,12,26,22,44,982.93
2022,12,26,22,45,982.76
2022,12,26,22,46,982.80
2022,12,26,22,47,982.76
2022,12,26,22,48,982.70
2022,12,26,22,49,982.73
2022,12,26,22,50,982.66